Location: Équennes
(49.7375°N, 1.9622°E)
Time: 17:58:16
(UTC+00:00)

Cosmos 2278 - Pass Details

Date: 29 September 2023
Orbit: 838 x 853 km, 71.1° (Epoch: 08 December)

Event Time Altitude Azimuth Distance (km) Brightness Sun altitude
Rises 23:02:05 0° 332° (NNW) 3,426 7.7 -42.1°
Reaches altitude 10° 23:05:54 10° 357° (N) 2,490 6.8 -42.2°
Enters shadow 23:08:34 14° 25° (NNE) 2,214 6.3 -42.3°
